This is the latest recevied weather packets stored in our database for station/object K6GMW. If no packets are shown the sender has not sent any weather packets the latest 10 day(s).
| Time | Temp. | Humidity | Pressure | Rain* | Wind** | Luminosity | Snow |
|---|---|---|---|---|---|---|---|
| 1778094970 | 16.11° C | 92% | 1013.6 hPa | 0 mm | - | 155 W/m² | - |
| 1778094665 | 16.11° C | 92% | 1013.2 hPa | 0 mm | - | 171 W/m² | - |
| 1778094363 | 15.56° C | 92% | 1013.3 hPa | 0 mm | - | 197 W/m² | - |
| 1778094060 | 15.56° C | 91% | 1013.4 hPa | 0 mm | - | 224 W/m² | - |
| 1778093757 | 15.56° C | 91% | 1013.2 hPa | 0 mm | - | 203 W/m² | - |
| 1778093453 | 15.56° C | 91% | 1013.4 hPa | 0 mm | - | 157 W/m² | - |
| 1778093151 | 15.56° C | 91% | 1013.3 hPa | 0 mm | - | 222 W/m² | - |
| 1778092848 | 15.56° C | 90% | 1013.2 hPa | 0 mm | - | 179 W/m² | - |
| 1778092544 | 15.56° C | 90% | 1013.1 hPa | 0 mm | - | 180 W/m² | - |
| 1778092241 | 15.56° C | 90% | 1013.7 hPa | 0 mm | - | 215 W/m² | - |
| 1778091938 | 15.56° C | 90% | 1014.1 hPa | 0 mm | - | 138 W/m² | - |
| 1778091635 | 15.56° C | 90% | 1014.2 hPa | 0 mm | - | 141 W/m² | - |
| 1778091333 | 15.56° C | 90% | 1014.7 hPa | 0 mm | - | 141 W/m² | - |
| 1778091029 | 15.56° C | 90% | 1014.6 hPa | 0 mm | - | 120 W/m² | - |
| 1778090726 | 15.56° C | 90% | 1014.3 hPa | 0 mm | - | 130 W/m² | - |
| 1778090423 | 15.56° C | 91% | 1014.6 hPa | 0 mm | - | 195 W/m² | - |
| 1778090119 | 15.56° C | 91% | 1014.5 hPa | 0 mm | - | 227 W/m² | - |
| 1778089816 | 15° C | 91% | 1014.6 hPa | 0 mm | - | 160 W/m² | - |
| 1778089515 | 15.56° C | 91% | 1014.1 hPa | 0 mm | - | 99 W/m² | - |
| 1778089210 | 15° C | 91% | 1014 hPa | 0 mm | - | 176 W/m² | - |
| 1778088908 | 15° C | 90% | 1014.5 hPa | 0 mm | - | 143 W/m² | - |
| 1778088605 | 15.56° C | 91% | 1014.8 hPa | 0 mm | - | 185 W/m² | - |
| 1778088302 | 15° C | 90% | 1014.8 hPa | 0 mm | - | 208 W/m² | - |
| 1778087998 | 15° C | 89% | 1015.1 hPa | 0 mm | - | 173 W/m² | - |
| 1778087696 | 15° C | 89% | 1015.3 hPa | 0 mm | - | 199 W/m² | - |
* Rain latest hour (hover to see other rain measurements)
** Current wind speed in m/s (hover to see current wind gust speed)